Location: Frydek-Mistek
(49.6830°N, 18.3330°E)
Time: 15:19:29
(UTC+02:00)

ISS - Pass Details

Date: 23 April 2026
Orbit: 414 x 424 km, 51.6° (Epoch: 18 May)

Event Time Altitude Azimuth Distance (km) Brightness Sun altitude
Exits shadow 03:10:22 13° 129° (SE) 1,326 -1.3 -20.1°
Drops below altitude 10° 03:11:39 10° 107° (ESE) 1,499 -0.7 -20.0°
Sets 03:14:36 0° 79° (ENE) 2,372 0.9 -19.7°
